Temperature
21 23 23 23 23 23 22 21 20 21 21 20 19 19 19 20 21 20 20 20 19 19 19 19 19 19 18 18 18 17 17 17 17 17 17 17 17 17 17 17 17 17 17 16
21 22 23 23 23 23 23 22 22 21 20 19 19 19 19 19 19 19 19 19 19 19 19 19 19 19 18 18 18 17 17 17 17 17 17 17 17 17 17 17 17 16 16 16
19 21 22 21 22 22 21 21 21 20 19 19 18 18 18 18 19 19 19 19 19 19 19 19 19 19 19 18 18 18 17 17 17 17 17 17 17 17 16 16 16 16 16 16
17 19 20 19 21 21 20 19 19 19 18 18 17 17 18 18 18 18 19 19 19 19 19 19 19 19 19 18 18 18 17 17 17 17 17 17 17 16 16 16 16 16 16 16
16 17 19 20 20 20 19 17 18 18 17 17 17 17 17 17 18 18 18 18 18 19 19 18 18 18 18 18 18 18 17 17 17 17 17 16 16 16 16 16 16 16 16 15
16 18 18 19 20 20 19 17 17 17 17 17 17 16 15 16 17 17 18 18 18 18 18 18 18 18 18 18 18 17 17 17 17 17 16 16 16 16 16 16 15 15 15 15
16 17 17 18 19 19 18 17 17 17 17 17 16 16 16 16 16 16 17 17 17 17 17 17 17 17 17 17 17 17 16 16 16 16 16 16 16 15 15 15 15 15 14 14
15 16 16 17 17 16 16 16 17 16 17 16 16 15 15 15 15 15 15 16 16 16 16 16 16 17 17 16 16 16 16 16 16 15 15 15 15 15 14 14 14 14 14 13
14 14 14 15 15 16 16 16 16 16 16 16 15 14 14 14 14 14 15 14 15 15 15 15 15 16 16 15 15 15 15 15 15 15 14 14 14 14 14 13 13 13 13 13
14 14 14 14 15 15 16 16 16 16 16 15 14 14 14 14 13 14 14 14 14 14 14 14 14 14 15 14 14 14 14 14 14 14 13 13 13 13 13 13 13 12 12 12
13 13 13 13 14 14 15 15 15 15 15 14 14 13 13 13 13 13 13 13 13 13 13 13 13 13 13 13 14 14 13 13 13 13 13 13 12 12 12 12 12 12 11 11
13 13 12 12 13 14 14 14 14 13 13 13 13 13 13 12 12 12 12 12 12 12 12 12 12 12 12 13 13 13 13 12 12 12 12 12 12 11 11 11 10 10 10 10
14 14 13 12 13 13 13 13 13 13 13 12 12 12 12 12 12 12 12 12 12 12 12 11 12 12 12 12 12 12 12 12 12 12 11 11 11 11 10 10 9 9 9 9
14 13 12 12 12 12 12 12 12 12 12 12 12 12 11 11 11 11 11 11 11 11 11 11 11 11 11 11 12 12 11 11 11 11 11 11 10 10 10 10 9 8 8 8
13 13 12 12 12 12 12 11 11 11 11 11 11 11 11 11 10 10 10 10 10 10 10 10 11 11 11 11 11 11 11 11 11 10 10 10 10 9 9 9 8 8 8 7
12 12 11 11 11 11 11 11 11 10 10 10 10 10 10 10 10 10 10 10 10 10 10 10 10 10 10 11 11 11 10 10 10 10 10 9 9 9 8 8 8 7 7 7
11 10 10 11 11 11 11 11 10 10 10 10 10 10 10 9 9 9 9 10 10 10 10 10 10 10 10 10 10 10 10 10 10 10 9 9 9 8 8 8 7 7 6 6
12 11 11 11 11 10 10 10 10 10 10 10 10 10 9 9 9 9 9 9 9 9 9 9 10 10 10 10 10 10 10 10 9 9 9 8 8 8 7 7 7 6 6 6
11 11 11 11 11 10 10 10 10 10 10 10 10 9 9 9 9 9 9 9 9 9 9 9 10 10 10 10 10 10 9 9 9 9 8 8 7 7 7 7 6 6 5 5
11 11 10 10 10 10 10 10 10 10 10 10 10 9 9 9 9 9 9 9 9 9 9 9 9 9 9 9 9 9 9 9 8 8 8 7 7 7 6 6 5 5 5 4
10 10 10 10 10 10 10 10 10 10 10 10 10 9 9 9 9 9 9 9 8 9 9 9 9 9 9 9 9 9 8 8 8 8 7 7 6 6 6 5 5 5 4 4
10 10 10 10 10 10 10 10 10 10 10 9 9 9 9 9 9 9 9 9 8 9 9 9 9 9 9 8 8 8 8 8 7 7 7 6 6 6 5 5 4 4 4 3
10 10 10 10 10 10 10 10 10 10 10 9 9 9 9 9 9 9 8 8 8 8 8 8 8 8 8 8 8 7 7 7 7 6 6 6 5 5 5 4 4 3 3 3
11 11 10 10 10 10 10 10 10 10 10 9 9 9 9 9 9 8 8 8 8 8 8 7 7 7 7 7 7 7 7 6 6 6 5 5 5 4 4 4 3 3 3 3
10 10 10 10 10 10 10 10 10 9 9 9 9 9 9 9 9 8 8 8 7 7 7 7 7 7 7 6 6 6 6 6 5 5 5 5 4 4 4 3 3 3 3 2
10 10 10 10 10 10 10 10 9 9 9 9 9 9 8 8 8 8 8 7 7 7 7 7 6 6 6 6 6 6 5 5 5 5 5 4 4 4 3 3 3 3 2 2
10 10 10 10 10 10 10 9 9 9 9 9 8 8 8 8 8 7 7 7 7 7 6 6 6 6 6 5 5 5 5 5 5 4 4 4 4 3 3 3 3 2 2 2
Wind_Speed
3 2 3 2 2 3 2 5 6 5 5 5 4 4 5 7 9 8 7 8 9 9 9 9 9 9 10 10 9 10 10 10 10 9 8 8 8 8 8 8 9 8 6 5
4 5 5 3 3 2 2 1 3 4 1 2 3 4 4 6 10 10 8 7 7 7 8 9 10 10 10 10 10 9 10 10 9 8 8 8 8 7 7 7 6 6 6 6
1 4 5 2 2 1 3 3 3 3 2 2 6 6 5 5 7 7 7 8 8 7 8 8 9 10 10 9 8 9 9 8 7 8 8 8 8 7 7 7 6 6 6 5
3 4 2 6 2 6 9 8 6 5 3 5 7 6 5 4 6 6 6 6 5 5 5 6 6 7 8 8 9 9 8 8 8 7 7 6 7 7 6 5 5 5 5 4
4 3 3 4 3 2 5 4 5 5 4 5 5 7 6 6 6 6 6 5 4 4 5 5 6 7 8 8 8 8 8 8 8 8 7 7 7 6 5 5 5 4 4 4
4 4 5 4 5 1 8 2 2 4 4 3 4 3 1 2 4 6 6 5 5 4 6 6 5 7 9 8 8 7 7 7 7 7 7 7 7 6 5 5 6 6 5 5
4 3 3 3 5 3 4 4 1 3 3 3 2 3 4 4 5 6 7 7 6 6 6 5 6 8 9 8 7 6 6 7 7 7 8 8 7 6 7 7 8 7 7 6
4 4 5 4 3 4 4 2 2 3 3 5 7 8 8 8 7 8 8 8 8 8 7 6 7 10 11 9 8 9 10 10 8 8 7 8 9 8 8 9 9 7 7 7
4 4 2 3 4 2 2 3 2 3 5 9 9 8 9 8 8 9 9 8 8 9 10 9 8 10 12 9 9 11 12 12 11 11 10 9 9 9 8 8 8 7 7 7
3 3 4 5 5 4 4 3 3 5 6 9 10 9 10 9 8 9 9 9 9 11 12 11 10 11 11 9 10 12 13 11 11 12 11 11 9 8 8 8 8 8 8 7
3 2 4 5 4 4 5 6 6 6 7 9 11 11 10 10 9 9 9 9 10 11 12 11 11 11 10 10 12 13 12 11 11 11 11 11 11 9 9 7 7 9 7 6
4 5 4 2 1 4 6 6 7 9 9 8 10 11 11 10 9 10 10 10 11 11 11 11 11 11 10 9 11 13 11 10 9 9 9 10 12 12 16 13 15 14 11 10
4 4 5 4 3 4 5 6 7 9 9 9 8 11 12 11 10 10 11 11 11 11 11 11 11 11 9 8 10 11 11 9 9 9 9 9 9 10 10 10 13 14 13 13
6 6 5 4 4 5 7 9 9 10 9 10 11 12 13 13 12 12 11 10 11 11 11 11 12 10 8 9 10 10 10 10 9 8 8 8 8 8 8 9 8 7 9 12
4 5 7 7 7 7 8 11 12 11 11 11 12 13 13 14 13 12 10 10 11 12 11 10 11 9 7 9 10 10 9 7 8 8 8 8 8 8 8 8 7 6 5 7
7 8 9 9 9 9 11 13 13 12 12 12 12 13 13 13 13 12 11 10 11 11 9 9 9 7 7 8 9 9 8 11 11 9 8 8 8 8 7 7 7 6 5 4
10 9 9 10 10 11 12 12 12 12 12 13 14 14 14 15 14 13 11 10 10 10 8 8 7 6 7 8 8 7 7 9 12 10 8 8 8 8 7 7 7 6 5 6
8 9 9 12 13 13 13 12 13 13 13 13 14 14 14 13 12 11 10 10 11 10 8 6 6 7 8 8 7 7 8 8 8 8 8 8 8 7 7 7 7 7 5 6
11 11 11 12 13 13 13 13 12 12 13 13 14 13 12 11 10 10 9 10 10 8 5 6 10 9 8 8 9 7 8 9 9 8 8 10 9 7 7 7 7 6 6 6
12 13 13 13 13 13 13 13 13 13 12 13 13 13 12 10 9 10 10 8 5 4 4 7 8 8 7 8 10 8 9 9 9 8 8 8 8 7 7 7 6 6 6 5
13 13 13 12 12 13 13 13 12 12 11 11 12 11 10 9 8 9 9 7 4 5 7 9 7 6 6 8 10 8 8 8 8 8 8 7 7 7 6 6 6 6 5 5
11 11 12 12 12 12 11 10 11 12 12 11 11 11 10 9 9 8 7 5 4 7 7 6 6 8 9 10 8 8 8 8 7 7 7 7 7 6 6 6 6 5 5 4
10 10 11 11 11 11 10 10 11 12 11 10 10 10 9 7 7 8 6 3 5 9 7 6 9 13 13 9 7 7 8 8 7 7 6 6 6 6 5 5 5 5 4 4
10 10 10 11 11 12 11 10 10 9 10 9 8 9 9 8 6 4 5 8 9 10 7 8 12 13 11 6 7 7 7 7 6 6 6 6 5 5 5 5 5 4 4 5
10 11 11 12 11 9 10 10 11 10 9 8 8 7 7 6 6 5 6 7 9 9 6 8 11 11 7 6 6 6 6 6 6 6 6 6 5 5 5 5 5 4 4 4
10 9 9 9 8 8 8 8 8 7 8 8 6 6 6 6 7 7 6 6 7 7 5 4 4 6 5 5 5 5 5 5 6 6 6 5 6 5 5 5 6 4 3 3
9 8 8 7 7 7 8 8 8 7 7 8 7 6 6 6 6 6 6 5 5 4 4 3 4 4 4 4 5 4 4 4 5 5 5 5 5 4 4 5 4 4 5 5
Wind_Direction
144 140 105 70 30 47 97 171 171 187 176 210 204 176 154 144 143 140 147 153 162 171 174 172 170 171 174 175 173 171 171 179 186 182 179 179 177 176 176 178 179 175 175 177
41 38 53 33 6 33 51 119 145 130 196 210 157 128 119 138 143 149 161 163 160 163 168 175 177 176 174 177 176 172 176 183 184 177 176 178 179 177 176 175 169 161 169 173
24 10 45 341 319 70 69 35 114 140 224 131 110 120 133 130 133 145 157 157 163 167 173 180 180 173 174 173 166 166 173 177 175 176 179 181 180 171 174 175 165 162 174 172
108 63 196 247 301 95 92 55 55 85 79 110 124 118 100 105 122 129 127 137 156 159 162 167 165 162 161 158 160 163 167 170 170 168 173 170 165 169 176 168 165 167 168 174
120 145 260 299 343 84 105 53 33 78 78 91 107 79 57 57 84 103 116 125 137 148 148 143 151 158 154 156 159 162 168 171 172 170 167 163 164 167 161 146 144 142 143 146
130 151 210 243 308 18 105 85 350 75 101 114 89 91 109 65 81 85 87 92 102 118 126 128 142 147 144 150 149 156 162 161 157 154 152 153 154 147 138 134 131 123 105 97
149 166 234 283 313 35 125 206 284 80 114 123 117 154 140 103 81 80 81 78 81 86 100 116 128 128 126 125 130 133 126 120 121 126 127 128 123 117 116 114 110 106 99 84
146 162 231 310 46 110 179 174 101 91 111 113 114 117 113 104 91 81 74 71 78 86 81 80 99 112 108 105 106 104 102 100 98 99 108 114 110 106 107 109 105 101 97 82
163 181 196 49 99 112 130 117 117 131 130 124 119 119 111 99 94 88 83 77 75 83 83 77 81 100 105 101 101 101 97 94 92 87 83 89 100 105 102 100 103 99 92 85
85 87 72 56 54 41 59 98 114 128 130 128 125 123 114 106 99 92 86 83 81 83 84 82 80 85 93 97 99 98 98 96 94 92 86 79 79 85 93 97 101 97 93 89
101 127 79 37 34 45 55 75 90 98 109 122 122 120 116 110 105 100 92 85 83 84 86 85 84 82 82 88 95 95 94 94 92 92 94 87 79 70 80 74 97 104 102 101
184 191 157 166 49 72 84 86 100 104 98 106 119 121 115 107 102 101 97 93 89 85 84 83 85 85 81 84 97 101 98 96 96 97 96 97 96 81 63 77 80 85 93 99
146 135 128 135 104 95 106 103 103 109 114 113 110 115 112 107 99 97 94 92 92 90 86 83 83 82 81 86 91 98 103 103 104 105 106 105 105 106 98 73 67 71 77 82
120 114 110 123 121 110 110 109 104 100 100 106 109 111 109 105 100 95 91 89 90 88 84 81 80 75 74 86 90 92 96 100 103 105 108 108 107 106 106 105 92 64 56 70
108 118 136 132 119 114 114 115 111 106 102 99 104 107 108 105 101 96 91 89 87 85 81 80 79 71 68 83 90 90 92 96 97 100 104 107 106 102 100 98 95 85 68 55
114 112 121 126 129 129 123 121 117 114 111 106 103 103 103 102 98 94 89 87 87 84 80 78 74 66 72 83 89 90 93 100 104 103 103 104 104 103 101 99 94 87 79 71
132 135 135 132 131 129 128 126 123 121 117 114 111 108 105 101 96 92 87 82 81 77 75 77 73 65 71 82 89 92 92 96 99 101 102 103 103 103 102 101 98 92 83 81
136 141 142 138 133 127 123 120 120 118 117 117 114 110 107 105 103 99 94 89 81 69 58 63 70 70 71 78 87 91 93 93 95 100 100 99 100 99 99 99 99 96 84 77
119 120 119 121 123 120 118 117 115 114 114 115 113 111 109 109 110 107 99 90 86 77 48 51 65 68 68 73 84 88 94 95 93 94 97 100 97 95 97 99 97 95 94 86
122 121 119 119 121 121 121 120 117 115 115 116 115 113 112 111 111 105 97 86 79 88 73 66 66 64 63 73 85 92 96 98 98 97 97 98 99 96 95 97 98 96 93 90
127 126 125 124 122 122 123 123 121 120 121 121 122 122 120 114 109 105 101 92 63 72 73 70 68 66 69 81 89 94 97 99 100 100 101 101 100 99 98 97 99 101 100 97
125 125 125 123 120 120 122 122 124 124 122 120 119 119 116 111 105 96 91 104 101 90 79 68 68 74 78 81 88 95 97 100 101 102 102 103 105 105 103 104 105 106 104 100
118 120 121 123 123 122 119 119 121 123 124 125 125 122 118 116 116 115 105 94 96 92 86 78 82 80 81 80 86 93 98 102 103 105 107 108 111 113 111 108 106 106 105 100
111 116 121 122 118 117 118 119 117 117 118 117 118 120 118 111 97 95 114 113 108 100 93 90 85 81 80 80 85 92 99 103 105 107 107 107 109 109 110 108 105 103 104 102
104 107 111 113 114 118 120 118 113 111 109 108 109 111 114 119 122 121 114 113 113 102 93 89 88 84 82 87 89 93 99 105 110 111 113 117 116 113 113 114 115 113 112 112
99 101 103 107 115 117 118 116 114 115 115 111 106 109 110 109 114 117 115 117 117 111 105 94 92 91 93 94 95 97 100 102 101 106 116 118 117 115 115 118 119 121 125 127
95 97 100 101 101 107 112 115 117 119 121 122 119 118 120 118 116 119 119 116 114 111 109 107 108 108 108 103 99 98 102 106 108 112 116 120 124 126 131 131 137 136 137 138
Height
1453 1449 1449 1452 1453 1453 1460 1465 1474 1472 1469 1466 1462 1460 1459 1459 1462 1467 1469 1472 1474 1476 1479 1481 1483 1485 1487 1489 1492 1495 1497 1499 1502 1505 1508 1511 1514 1517 1520 1523 1525 1527 1529 1529
1455 1450 1450 1453 1452 1452 1455 1457 1461 1463 1467 1459 1459 1460 1461 1461 1462 1465 1469 1471 1473 1475 1477 1480 1482 1484 1486 1488 1491 1494 1496 1498 1501 1504 1507 1510 1513 1515 1518 1521 1523 1525 1526 1528
1468 1457 1455 1466 1456 1455 1458 1458 1459 1466 1465 1460 1461 1463 1463 1463 1463 1465 1467 1469 1472 1474 1475 1478 1480 1482 1485 1487 1490 1492 1495 1497 1500 1503 1505 1508 1511 1514 1516 1518 1520 1522 1525 1526
1470 1468 1479 1469 1452 1451 1458 1462 1459 1459 1461 1461 1462 1464 1464 1464 1464 1465 1467 1469 1471 1473 1475 1477 1480 1482 1484 1487 1489 1491 1493 1496 1498 1501 1504 1506 1509 1511 1513 1516 1518 1520 1522 1524
1475 1478 1473 1461 1454 1454 1460 1468 1463 1461 1462 1462 1463 1463 1466 1467 1466 1466 1467 1469 1470 1472 1474 1476 1478 1480 1483 1484 1487 1489 1491 1493 1496 1499 1501 1504 1506 1508 1510 1513 1515 1517 1519 1521
1472 1476 1480 1465 1453 1451 1456 1471 1464 1461 1462 1463 1462 1468 1470 1468 1467 1467 1467 1468 1469 1471 1472 1474 1476 1478 1480 1483 1485 1487 1489 1492 1494 1497 1499 1501 1503 1506 1508 1511 1513 1515 1516 1518
1470 1472 1468 1458 1453 1452 1468 1471 1464 1462 1462 1462 1463 1466 1468 1467 1468 1468 1467 1468 1468 1469 1471 1472 1474 1477 1479 1481 1483 1486 1488 1491 1493 1495 1497 1499 1502 1504 1506 1508 1510 1512 1514 1516
1468 1474 1473 1456 1455 1460 1463 1461 1462 1462 1462 1462 1463 1465 1466 1467 1468 1468 1468 1468 1468 1468 1470 1472 1474 1476 1478 1480 1483 1485 1487 1489 1492 1494 1496 1498 1501 1503 1505 1507 1509 1510 1512 1514
1463 1467 1461 1457 1457 1459 1459 1460 1460 1460 1461 1462 1464 1466 1466 1467 1468 1469 1470 1470 1471 1471 1472 1473 1475 1477 1478 1481 1483 1485 1487 1489 1491 1494 1496 1498 1500 1503 1505 1507 1509 1511 1512 1514
1460 1461 1460 1459 1459 1459 1459 1459 1459 1460 1461 1462 1464 1466 1467 1468 1470 1471 1472 1472 1473 1474 1474 1475 1477 1479 1480 1482 1485 1486 1488 1490 1492 1495 1497 1499 1501 1503 1505 1507 1509 1512 1514 1515
1461 1461 1461 1461 1461 1460 1459 1459 1459 1460 1462 1463 1464 1466 1468 1469 1471 1472 1473 1474 1475 1476 1477 1478 1480 1481 1483 1485 1487 1488 1491 1493 1495 1498 1500 1501 1503 1505 1507 1509 1511 1513 1515 1516
1460 1458 1460 1462 1461 1461 1460 1460 1460 1461 1463 1465 1465 1467 1469 1471 1473 1475 1476 1477 1478 1480 1480 1482 1483 1485 1487 1489 1491 1492 1494 1496 1498 1501 1503 1504 1505 1508 1511 1513 1515 1516 1518 1518
1453 1455 1457 1459 1460 1460 1460 1461 1462 1463 1464 1465 1467 1469 1470 1473 1476 1478 1480 1481 1482 1483 1485 1487 1488 1490 1492 1494 1496 1496 1498 1499 1501 1504 1506 1508 1509 1511 1513 1516 1517 1519 1519 1520
1453 1454 1457 1458 1459 1460 1461 1462 1464 1465 1467 1468 1469 1472 1474 1476 1479 1481 1483 1485 1486 1488 1490 1491 1493 1494 1497 1499 1500 1501 1502 1504 1506 1508 1510 1511 1513 1515 1516 1517 1519 1520 1522 1523
1453 1453 1455 1457 1459 1461 1462 1464 1466 1468 1470 1472 1473 1475 1478 1480 1483 1486 1488 1490 1491 1493 1495 1496 1498 1500 1502 1503 1504 1505 1507 1508 1510 1512 1514 1515 1517 1518 1519 1521 1522 1523 1524 1525
1453 1454 1456 1457 1459 1462 1464 1465 1467 1471 1473 1475 1477 1480 1482 1485 1487 1490 1492 1494 1495 1497 1499 1501 1502 1504 1506 1507 1508 1509 1511 1512 1513 1515 1517 1518 1519 1521 1522 1523 1524 1525 1526 1527
1452 1454 1456 1458 1460 1463 1466 1468 1470 1473 1476 1479 1482 1484 1487 1489 1492 1494 1497 1499 1500 1502 1504 1505 1507 1508 1510 1511 1512 1513 1514 1516 1517 1518 1520 1521 1522 1523 1524 1525 1526 1527 1528 1528
1451 1454 1456 1458 1461 1465 1468 1472 1474 1477 1480 1483 1486 1489 1491 1494 1497 1499 1501 1503 1505 1506 1508 1510 1511 1512 1513 1514 1515 1516 1517 1519 1520 1521 1522 1524 1525 1526 1527 1527 1528 1529 1529 1530
1454 1457 1459 1462 1465 1468 1471 1475 1478 1481 1484 1487 1490 1493 1496 1499 1501 1504 1506 1508 1509 1511 1513 1514 1515 1516 1517 1518 1519 1520 1521 1522 1523 1524 1525 1526 1527 1528 1529 1529 1530 1530 1531 1531
1457 1460 1463 1466 1469 1472 1475 1479 1482 1486 1489 1492 1495 1498 1501 1504 1506 1508 1510 1512 1514 1515 1517 1518 1518 1519 1520 1521 1522 1522 1523 1524 1525 1526 1527 1528 1529 1530 1530 1531 1531 1532 1532 1532
1460 1463 1467 1470 1473 1477 1480 1483 1487 1490 1493 1496 1499 1502 1505 1508 1510 1512 1514 1515 1518 1519 1520 1521 1521 1522 1522 1523 1524 1525 1526 1526 1527 1528 1529 1530 1530 1531 1532 1532 1533 1533 1533 1533
1464 1467 1471 1474 1477 1481 1485 1488 1491 1494 1497 1501 1503 1506 1508 1511 1513 1515 1517 1519 1521 1522 1523 1523 1524 1524 1525 1526 1526 1527 1528 1528 1529 1530 1531 1532 1532 1533 1533 1533 1533 1533 1533 1533
1468 1471 1475 1478 1482 1485 1489 1492 1495 1498 1501 1504 1506 1509 1511 1514 1516 1517 1519 1522 1523 1524 1525 1525 1526 1527 1527 1528 1528 1529 1530 1530 1531 1532 1532 1533 1533 1534 1534 1534 1534 1534 1534 1534
1472 1476 1479 1483 1486 1489 1492 1496 1499 1502 1504 1507 1510 1512 1514 1516 1518 1521 1522 1524 1525 1526 1527 1528 1528 1529 1529 1530 1530 1531 1531 1532 1533 1533 1534 1534 1534 1535 1535 1535 1535 1535 1535 1534
1476 1480 1483 1486 1490 1493 1496 1499 1502 1505 1508 1510 1513 1515 1518 1519 1521 1522 1524 1526 1527 1528 1529 1529 1530 1530 1531 1531 1532 1532 1533 1534 1534 1534 1535 1535 1536 1536 1536 1536 1536 1535 1535 1534
1481 1484 1487 1490 1493 1496 1499 1502 1505 1508 1511 1513 1516 1518 1520 1522 1523 1525 1526 1527 1529 1530 1530 1531 1532 1532 1532 1533 1533 1534 1534 1535 1535 1536 1536 1536 1537 1537 1536 1536 1536 1535 1535 1534
1486 1489 1491 1495 1498 1500 1502 1505 1508 1510 1513 1515 1517 1520 1522 1523 1525 1526 1527 1529 1530 1531 1532 1532 1533 1533 1534 1534 1535 1535 1536 1536 1536 1537 1537 1537 1537 1537 1537 1536 1536 1535 1534 1533